Location: Ladysmith
(45.4630°N, 91.1040°W)
Time: 07:14:37
(UTC-05:00)

Amateur Radio Satellites - All Passes

Search period start: 22 October 2014 06:44
Search period end: 23 October 2014 06:44
Location: Ladysmith, 45.4630°N, 91.1040°W

Satellite Date Start Highest point End Downlink Frequencies (MHz)
Time Altitude Azimuth
JAS-2 22 Oct 06:54:08 07:01:51 89° 105° (ESE) 07:09:44 435.800 - 435.900 CW/SSB, 435.910 FM
STRAND 1 22 Oct 06:55:35 07:00:42 82° 74° (ENE) 07:05:53 ?
OPAL 22 Oct 06:59:00 07:00:46 12° 270° (W) 07:02:32 ?
AO-7 22 Oct 07:18:13 07:25:24 34° 305° (NW) 07:32:35 29.400 - 29.500 MHz
RS-15 22 Oct 07:23:32 07:34:39 70° 49° (NE) 07:46:12 29.354 - 29.394 USB, Beacon 29.352 USB
Sapphire 22 Oct 07:44:06 07:46:51 14° 330° (NNW) 07:49:37 437.095 MHz 1200 baud AX-25 AFSK
Hamsat 22 Oct 07:50:46 07:54:25 30° 292° (WNW) 07:58:04 145.90 MHz
SO-67 22 Oct 07:59:21 08:02:44 49° 99° (E) 08:06:05 435.3500 MHz FM
PCSat 22 Oct 08:09:21 08:10:24 11° 337° (NNW) 08:11:28 145.825 MHz
STRAND 1 22 Oct 08:38:03 08:40:32 14° 272° (W) 08:43:02 ?
JAS-2 22 Oct 08:40:18 08:46:00 24° 304° (WNW) 08:51:52 435.800 - 435.900 CW/SSB, 435.910 FM
Saudisat 1A 22 Oct 08:54:24 08:58:45 70° 123° (ESE) 09:03:09 436.775 MHz
HO-68 22 Oct 09:19:38 09:26:00 33° 95° (E) 09:32:18 435.675 MHz FM
SO-67 22 Oct 09:33:57 09:35:17 12° 296° (WNW) 09:36:38 435.3500 MHz FM
RS-15 22 Oct 09:36:28 09:46:22 39° 252° (WSW) 09:56:39 29.354 - 29.394 USB, Beacon 29.352 USB
MaSat-1 22 Oct 09:52:51 09:55:34 54° 59° (ENE) 09:58:02 437.345 MHz
Oscar 11 22 Oct 09:55:41 09:58:45 19° 92° (E) 10:01:48 145.825 FM, Beacon 2401.500 USB
Saudisat 1A 22 Oct 10:35:28 10:38:47 21° 323° (NW) 10:42:07 436.775 MHz
ZACube-1 22 Oct 10:36:41 10:40:01 22° 93° (E) 10:43:17 437.345 MHz
UKube-1 22 Oct 10:46:41 10:51:04 68° 102° (ESE) 10:55:24 145.840 MHz, 145.915 MHz
HO-68 22 Oct 11:07:01 11:13:59 55° 294° (WNW) 11:20:56 435.675 MHz FM
KITSAT 1 22 Oct 11:14:46 11:17:03 11° 97° (E) 11:19:19 435.175 FM
Sapphire 22 Oct 11:17:48 11:19:21 11° 24° (NNE) 11:20:53 437.095 MHz 1200 baud AX-25 AFSK
FUNcube-1 22 Oct 11:21:29 11:25:47 64° 101° (E) 11:29:57 145.950 - 145.970 MHz USB
Oscar 11 22 Oct 11:31:03 11:35:09 44° 289° (WNW) 11:39:14 145.825 FM, Beacon 2401.500 USB
PCSat 22 Oct 11:39:52 11:42:51 15° 31° (NNE) 11:45:50 145.825 MHz
ZACube-1 22 Oct 12:12:35 12:16:34 37° 291° (WNW) 12:20:26 437.345 MHz
Oscar 16 22 Oct 12:17:14 12:20:34 18° 59° (ENE) 12:23:53 437.025 USB, Beacon 2401.1428
UKube-1 22 Oct 12:24:20 12:26:44 15° 300° (WNW) 12:29:07 145.840 MHz, 145.915 MHz
Uribyol 2 22 Oct 12:33:49 12:35:29 12° 54° (NE) 12:37:08 436.500 FM
AO-Echo 22 Oct 12:35:48 12:37:52 13° 55° (NE) 12:39:57 ?
JAS-1B 22 Oct 12:36:20 12:40:49 23° 60° (ENE) 12:45:10 435.800 - 435.900 CW/SSB
ITAMSAT 1 22 Oct 12:38:51 12:40:46 12° 54° (NE) 12:42:40 435.822 SSB
HO-68 22 Oct 12:57:10 13:00:10 13° 315° (NW) 13:03:09 435.675 MHz FM
FUNcube-1 22 Oct 12:59:19 13:01:38 14° 299° (WNW) 13:03:55 145.950 - 145.970 MHz USB
Sapphire 22 Oct 12:59:22 13:04:25 37° 48° (NE) 13:09:27 437.095 MHz 1200 baud AX-25 AFSK
KITSAT 1 22 Oct 13:02:52 13:10:45 61° 116° (ESE) 13:18:41 435.175 FM
Oscar 19 22 Oct 13:09:12 13:14:05 45° 69° (ENE) 13:18:59 437.125 CW, 437.150 USB
AO-27 22 Oct 13:20:49 13:25:07 27° 63° (ENE) 13:29:27 436.795 MHz FM
PCSat 22 Oct 13:22:07 13:27:29 57° 53° (NE) 13:32:49 145.825 MHz
ISS 22 Oct 13:48:04 13:50:50 24° 138° (SE) 13:53:37 145.800 FM
Oscar 16 22 Oct 13:54:11 13:59:21 73° 257° (WSW) 14:04:32 437.025 USB, Beacon 2401.1428
SO-50 22 Oct 13:55:01 13:59:22 51° 120° (ESE) 14:03:51 436.795 FM
Oscar 10/S400 22 Oct 13:55:16 14:11:21 30° 150° (SSE) 14:31:07 145.825 - 145.975 CW/USB, Beacon 145.810 USB
Uribyol 2 22 Oct 14:08:49 14:14:01 70° 73° (ENE) 14:19:14 436.500 FM
AO-Echo 22 Oct 14:10:55 14:15:47 83° 75° (ENE) 14:20:51 ?
ITAMSAT 1 22 Oct 14:14:09 14:19:21 74° 73° (ENE) 14:24:35 435.822 SSB
Gurwin Techsat 1B 22 Oct 14:18:34 14:23:34 44° 68° (ENE) 14:28:36 435.225 FM
JAS-1B 22 Oct 14:25:17 14:31:12 56° 259° (W) 14:36:47 435.800 - 435.900 CW/SSB
TMSAT-1 22 Oct 14:31:36 14:36:34 43° 68° (ENE) 14:41:34 436.925 FM
AO-7 22 Oct 14:35:50 14:42:22 27° 51° (NE) 14:48:55 29.400 - 29.500 MHz
Sapphire 22 Oct 14:42:51 14:47:52 39° 247° (WSW) 14:52:52 437.095 MHz 1200 baud AX-25 AFSK
Oscar 19 22 Oct 14:49:25 14:53:37 25° 266° (W) 14:57:51 437.125 CW, 437.150 USB
KITSAT 1 22 Oct 14:59:01 15:06:33 41° 318° (NW) 15:14:07 435.175 FM
AO-27 22 Oct 14:59:25 15:04:24 45° 261° (W) 15:09:26 436.795 MHz FM
PCSat 22 Oct 15:06:15 15:10:31 24° 252° (WSW) 15:14:46 145.825 MHz
ISS 22 Oct 15:24:03 15:27:21 59° 336° (NNW) 15:30:40 145.800 FM
JAS-2 22 Oct 15:30:29 15:31:15 10° 44° (NE) 15:32:00 435.800 - 435.900 CW/SSB, 435.910 FM
UOSAT-12 22 Oct 15:32:57 15:37:23 46° 119° (ESE) 15:41:55 437.025 FM, 437.400 FM
SO-50 22 Oct 15:36:19 15:40:11 27° 320° (NW) 15:44:10 436.795 FM
Saudisat 1A 22 Oct 15:40:13 15:43:27 19° 36° (NE) 15:46:40 436.775 MHz
Uribyol 2 22 Oct 15:50:46 15:54:00 16° 270° (W) 15:57:16 436.500 FM
AO-Echo 22 Oct 15:53:16 15:55:16 12° 273° (W) 15:57:18 ?
Uosat F 22 Oct 15:53:49 15:58:26 38° 67° (ENE) 16:03:06 435.120 FM
ITAMSAT 1 22 Oct 15:56:21 15:59:24 16° 271° (W) 16:02:29 435.822 SSB
Gurwin Techsat 1B 22 Oct 15:59:15 16:03:42 27° 266° (W) 16:08:12 435.225 FM
TMSAT-1 22 Oct 16:12:08 16:16:38 28° 266° (W) 16:21:09 436.925 FM
AO-7 22 Oct 16:26:01 16:34:19 83° 252° (WSW) 16:42:39 29.400 - 29.500 MHz
KITSAT 1 22 Oct 16:59:08 17:04:31 19° 346° (NNW) 17:09:54 435.175 FM
ISS 22 Oct 17:01:33 17:04:29 27° 356° (N) 17:07:26 145.800 FM
JAS-2 22 Oct 17:08:51 17:14:31 49° 67° (ENE) 17:20:57 435.800 - 435.900 CW/SSB, 435.910 FM
Hamsat 22 Oct 17:10:30 17:13:59 26° 67° (ENE) 17:17:28 145.90 MHz
UOSAT-12 22 Oct 17:13:37 17:17:43 29° 319° (NW) 17:21:53 437.025 FM, 437.400 FM
Saudisat 1A 22 Oct 17:19:06 17:23:32 78° 236° (SW) 17:27:57 436.775 MHz
OPAL 22 Oct 17:24:45 17:28:18 19° 94° (E) 17:31:48 ?
Uosat F 22 Oct 17:33:00 17:37:18 29° 265° (W) 17:41:39 435.120 FM
AO-7 22 Oct 18:23:06 18:28:19 18° 272° (W) 18:33:34 29.400 - 29.500 MHz
SO-67 22 Oct 18:34:25 18:37:12 23° 69° (ENE) 18:39:59 435.3500 MHz FM
ISS 22 Oct 18:38:37 18:41:46 37° 16° (NNE) 18:44:54 145.800 FM
Hamsat 22 Oct 18:46:05 18:49:50 31° 264° (W) 18:53:35 145.90 MHz
JAS-2 22 Oct 18:54:50 18:59:55 30° 269° (W) 19:05:36 435.800 - 435.900 CW/SSB, 435.910 FM
KITSAT 1 22 Oct 18:57:57 19:03:33 20° 17° (NNE) 19:09:07 435.175 FM
OPAL 22 Oct 19:02:40 19:07:33 56° 292° (WNW) 19:12:22 ?
STRAND 1 22 Oct 19:04:39 19:08:45 23° 93° (E) 19:12:49 ?
AO-40 22 Oct 19:12:14 01:13:55 40° 182° (S) 04:57:26 Beacon 2401.320
HO-68 22 Oct 19:50:52 19:57:02 33° 59° (ENE) 20:03:13 435.675 MHz FM
SO-67 22 Oct 20:07:22 20:10:07 22° 266° (W) 20:12:53 435.3500 MHz FM
ISS 22 Oct 20:15:18 20:18:34 53° 215° (SW) 20:21:50 145.800 FM
STRAND 1 22 Oct 20:43:13 20:48:11 48° 291° (WNW) 20:53:07 ?
SO-50 22 Oct 20:44:32 20:47:57 19° 34° (NE) 20:51:24 436.795 FM
Oscar 11 22 Oct 20:53:01 20:56:15 21° 64° (ENE) 20:59:28 145.825 FM, Beacon 2401.500 USB
KITSAT 1 22 Oct 20:53:35 21:01:18 46° 44° (NE) 21:08:59 435.175 FM
ZACube-1 22 Oct 21:35:00 21:38:47 26° 66° (ENE) 21:42:32 437.345 MHz
HO-68 22 Oct 21:37:21 21:44:22 58° 258° (WSW) 21:51:28 435.675 MHz FM
UKube-1 22 Oct 21:44:01 21:48:21 78° 74° (ENE) 21:52:44 145.840 MHz, 145.915 MHz
RS-15 22 Oct 21:51:36 22:00:45 32° 105° (ESE) 22:09:49 29.354 - 29.394 USB, Beacon 29.352 USB
FUNcube-1 22 Oct 22:19:22 22:23:56 68° 74° (ENE) 22:28:27 145.950 - 145.970 MHz USB
UOSAT-12 22 Oct 22:21:06 22:24:12 17° 32° (NNE) 22:27:17 437.025 FM, 437.400 FM
SO-50 22 Oct 22:24:21 22:29:13 86° 54° (NE) 22:34:07 436.795 FM
Oscar 11 22 Oct 22:28:02 22:32:09 42° 262° (W) 22:36:18 145.825 FM, Beacon 2401.500 USB
KITSAT 1 22 Oct 22:49:07 22:56:52 52° 246° (WSW) 23:04:35 435.175 FM
ZACube-1 22 Oct 23:10:45 23:15:01 37° 263° (W) 23:19:15 437.345 MHz
UKube-1 22 Oct 23:23:53 23:25:06 11° 271° (W) 23:26:19 145.840 MHz, 145.915 MHz
MaSat-1 22 Oct 23:33:50 23:35:40 13° 105° (ESE) 23:37:25 437.345 MHz
FUNcube-1 22 Oct 23:58:25 00:00:45 14° 271° (W) 00:03:05 145.950 - 145.970 MHz USB
UOSAT-12 23 Oct 00:00:25 00:05:10 75° 53° (NE) 00:09:50 437.025 FM, 437.400 FM
RS-15 23 Oct 00:01:03 00:12:03 77° 308° (NW) 00:23:04 29.354 - 29.394 USB, Beacon 29.352 USB
SO-50 23 Oct 00:06:40 00:09:08 14° 251° (WSW) 00:11:36 436.795 FM
MaSat-1 23 Oct 01:06:53 01:11:01 65° 299° (WNW) 01:14:45 437.345 MHz
Oscar 19 23 Oct 01:20:20 01:22:37 13° 88° (E) 01:24:54 437.125 CW, 437.150 USB
UOSAT-12 23 Oct 01:42:00 01:44:43 15° 251° (WSW) 01:47:25 437.025 FM, 437.400 FM
Oscar 16 23 Oct 02:03:56 02:08:35 33° 96° (E) 02:13:10 437.025 USB, Beacon 2401.1428
JAS-1B 23 Oct 02:04:55 02:10:50 34° 97° (E) 02:17:41 435.800 - 435.900 CW/SSB
AO-Echo 23 Oct 02:16:16 02:20:34 25° 93° (E) 02:24:52 ?
RS-15 23 Oct 02:16:50 02:26:26 34° 338° (NNW) 02:36:11 29.354 - 29.394 USB, Beacon 29.352 USB
Uribyol 2 23 Oct 02:20:13 02:24:07 21° 92° (E) 02:27:59 436.500 FM
ITAMSAT 1 23 Oct 02:25:36 02:29:38 22° 92° (E) 02:33:38 435.822 SSB
Gurwin Techsat 1B 23 Oct 02:33:56 02:36:46 14° 88° (E) 02:39:35 435.225 FM
TMSAT-1 23 Oct 02:46:40 02:49:22 14° 88° (E) 02:52:03 436.925 FM
Oscar 19 23 Oct 02:57:29 03:02:38 84° 286° (WNW) 03:07:44 437.125 CW, 437.150 USB
AO-27 23 Oct 03:09:56 03:15:05 55° 101° (E) 03:20:12 436.795 MHz FM
Oscar 16 23 Oct 03:43:19 03:47:54 34° 294° (WNW) 03:52:28 437.025 USB, Beacon 2401.1428
Sapphire 23 Oct 03:44:57 03:48:44 20° 106° (ESE) 03:52:31 437.095 MHz 1200 baud AX-25 AFSK
AO-Echo 23 Oct 03:54:28 03:59:33 49° 290° (WNW) 04:04:39 ?
JAS-1B 23 Oct 03:55:31 04:01:35 48° 292° (WNW) 04:08:44 435.800 - 435.900 CW/SSB
Uribyol 2 23 Oct 03:58:50 04:03:56 55° 290° (WNW) 04:08:59 436.500 FM
ITAMSAT 1 23 Oct 04:04:20 04:09:26 52° 290° (WNW) 04:14:28 435.822 SSB
PCSat 23 Oct 04:06:32 04:11:16 32° 111° (ESE) 04:16:02 145.825 MHz
Gurwin Techsat 1B 23 Oct 04:12:02 04:17:23 81° 286° (WNW) 04:22:41 435.225 FM
TMSAT-1 23 Oct 04:24:36 04:29:57 83° 286° (WNW) 04:35:15 436.925 FM
AO-7 23 Oct 04:25:38 04:32:40 30° 94° (E) 04:39:40 29.400 - 29.500 MHz
RS-15 23 Oct 04:33:49 04:43:05 30° 13° (NNE) 04:52:33 29.354 - 29.394 USB, Beacon 29.352 USB
Oscar 19 23 Oct 04:38:52 04:41:11 13° 304° (NW) 04:43:29 437.125 CW, 437.150 USB
OPAL 23 Oct 04:41:08 04:46:03 47° 67° (ENE) 04:50:55 ?
AO-27 23 Oct 04:50:12 04:54:13 23° 299° (WNW) 04:58:14 436.795 MHz FM
Sapphire 23 Oct 05:26:13 05:31:36 68° 305° (NW) 05:37:02 437.095 MHz 1200 baud AX-25 AFSK
Uosat F 23 Oct 05:37:27 05:42:32 74° 103° (ESE) 05:47:34 435.120 FM
PCSat 23 Oct 05:49:22 05:54:32 44° 310° (NW) 05:59:45 145.825 MHz
Gurwin Techsat 1B 23 Oct 05:54:04 05:56:30 13° 305° (NW) 05:58:56 435.225 FM
JAS-2 23 Oct 05:59:28 06:06:45 43° 96° (E) 06:14:06 435.800 - 435.900 CW/SSB, 435.910 FM
TMSAT-1 23 Oct 06:06:30 06:09:02 14° 304° (NW) 06:11:34 436.925 FM
AO-7 23 Oct 06:17:48 06:26:03 69° 294° (WNW) 06:34:17 29.400 - 29.500 MHz
OPAL 23 Oct 06:20:56 06:25:07 25° 264° (W) 06:29:18 ?
STRAND 1 23 Oct 06:22:30 06:27:18 42° 68° (ENE) 06:32:08 ?
Hamsat 23 Oct 06:28:59 06:32:53 37° 97° (E) 06:36:48 145.90 MHz
